Location: Stoke Bliss
(52.2667°N, 2.5167°W)
Time: 18:29:07
(UTC+00:00)

Envisat - Visible Passes

Search period start: 03 October 2022 00:00
Search period end: 13 October 2022 00:00
Orbit: 764 x 765 km, 98.2° (Epoch: 03 October)

Date Brightness Start Highest point End Pass type
(mag) Time Alt. Az. Time Alt. Az. Time Alt. Az.
03 Oct 4.5 03:58:40 10° NNE 04:03:23 36° E 04:08:03 10° SSE visible
03 Oct 3.5 05:37:43 10° N 05:42:26 40° WNW 05:47:08 10° SW visible
04 Oct 5.5 03:22:26 10° NE 03:26:02 19° E 03:29:37 10° SE visible
04 Oct 2.9 05:00:32 10° NNE 05:05:37 75° WNW 05:10:41 10° SSW visible
05 Oct 3.6 04:23:35 10° NNE 04:28:37 58° E 04:33:37 10° S visible
06 Oct 4.8 03:46:58 10° NNE 03:51:25 30° E 03:55:51 10° SSE visible
06 Oct 3.3 05:25:45 10° N 05:30:39 48° WNW 05:35:30 10° SW visible
07 Oct 5.8 03:11:01 10° NE 03:14:01 16° E 03:17:00 10° ESE visible
07 Oct 3.0 04:48:38 10° NNE 04:53:46 90° ESE 04:58:51 10° SSW visible
08 Oct 4.0 04:11:47 10° NNE 04:16:42 47° E 04:21:35 10° S visible
09 Oct 5.2 03:35:18 10° NE 03:39:26 24° E 03:43:33 10° SE visible
09 Oct 3.1 05:13:49 10° N 05:18:49 59° WNW 05:23:48 10° SSW visible
10 Oct 5.9 02:59:51 10° ENE 03:01:58 12° E 03:04:04 10° ESE visible
10 Oct 3.2 04:36:46 10° NNE 04:41:53 74° ESE 04:46:58 10° S visible
11 Oct 4.4 04:00:01 10° NNE 04:04:46 38° E 04:09:28 10° SSE visible
11 Oct 3.5 05:39:06 10° N 05:43:47 38° WNW 05:48:27 10° SW visible
12 Oct 5.4 03:23:43 10° NE 03:27:26 20° E 03:31:07 10° SE visible
12 Oct 2.9 05:01:53 10° NNE 05:06:59 72° WNW 05:12:02 10° SSW visible
